CW9386 Weather Reports


Display with metric or nautical units.
time (UTC)temp
F
wind
direction
speed
MPH
gust
MPH
rain 1hr
in
rain 24hr
in
rain mn
in
humidity
%
barometer
mb
20260507192723 80 80 0.0 9.0 0.00 0.00 0.00 16 1016.7
20260507191737 79 91 3.0 11.0 0.00 0.00 0.00 16 1016.9
20260507190735 79 77 6.0 13.0 0.00 0.00 0.00 17 1017.0
20260507185724 78 289 4.0 11.0 0.00 0.00 0.00 16 1017.2
20260507184721 78 140 8.0 11.0 0.00 0.00 0.00 17 1016.5
20260507183738 78 33 3.0 21.0 0.00 0.00 0.00 17 1016.6
20260507182730 78 81 2.0 9.0 0.00 0.00 0.00 17 1016.7
20260507181727 77 40 5.0 10.0 0.00 0.00 0.00 18 1016.8
20260507180739 77 346 4.0 11.0 0.00 0.00 0.00 19 1017.1
20260507175738 76 288 2.0 9.0 0.00 0.00 0.00 18 1017.1
20260507174722 76 313 1.0 9.0 0.00 0.00 0.00 20 1017.4
20260507173720 76 75 6.0 9.0 0.00 0.00 0.00 21 1017.4
20260507172730 76 166 4.0 10.0 0.00 0.00 0.00 21 1017.6
20260507171722 75 61 2.0 9.0 0.00 0.00 0.00 21 1017.6
20260507164727 74 101 6.0 11.0 0.00 0.00 0.00 22 1017.8
20260507161731 70 5 2.0 4.0 0.00 0.00 0.00 28 1018.3
20260507160737 69 329 1.0 5.0 0.00 0.00 0.00 29 1018.4
20260507155729 67 304 0.0 6.0 0.00 0.00 0.00 30 1018.7
20260507153721 65 355 3.0 7.0 0.00 0.00 0.00 33 1018.7
20260507152721 64 5 3.0 8.0 0.00 0.00 0.00 35 1018.7
20260507151736 62 13 3.0 8.0 0.00 0.00 0.00 36 1018.8
20260507145727 61 360 6.0 9.0 0.00 0.00 0.00 38 1019.0
20260507144724 60 348 4.0 6.0 0.00 0.00 0.00 39 1019.0
20260507142716 58 26 4.0 8.0 0.00 0.00 0.00 42 1019.2
20260507141716 57 27 3.0 8.0 0.00 0.00 0.00 42 1019.3
20260507140725 56 19 4.0 11.0 0.00 0.00 0.00 44 1019.2
20260507134734 54 342 8.0 11.0 0.00 0.00 0.00 45 1018.9
20260507132723 52 38 7.0 10.0 0.00 0.00 0.00 46 1018.7
20260507131733 52 39 8.0 11.0 0.00 0.00 0.00 46 1018.7
20260507130726 51 10 5.0 10.0 0.00 0.00 0.00 46 1018.7
20260507125720 50 22 5.0 10.0 0.00 0.00 0.00 47 1018.5
20260507124730 50 349 6.0 9.0 0.00 0.00 0.00 46 1018.5
20260507123725 49 10 5.0 10.0 0.00 0.00 0.00 45 1018.5
20260507122731 50 21 5.0 8.0 0.00 0.00 0.00 43 1018.4
20260507121724 50 28 4.0 9.0 0.00 0.00 0.00 41 1018.4
20260507120719 50 44 5.0 9.0 0.00 0.00 0.00 41 1018.3
20260507115731 49 55 5.0 6.0 0.00 0.00 0.00 40 1018.2
20260507114730 49 12 3.0 7.0 0.00 0.00 0.00 38 1018.2
20260507113730 49 67 5.0 8.0 0.00 0.00 0.00 36 1018.0
20260507112723 49 62 3.0 5.0 0.00 0.00 0.00 37 1017.9
20260507111719 49 54 1.0 8.0 0.00 0.00 0.00 37 1017.9
20260507110714 49 11 4.0 8.0 0.00 0.00 0.00 35 1017.8
20260507105730 50 13 4.0 8.0 0.00 0.00 0.00 32 1017.7
20260507102718 50 360 3.0 5.0 0.00 0.00 0.00 30 1017.6
20260507101727 51 18 3.0 6.0 0.00 0.00 0.00 29 1017.5
20260507100722 52 5 3.0 6.0 0.00 0.00 0.00 28 1017.5
20260507094729 55 349 2.0 5.0 0.00 0.00 0.00 25 1017.2
20260507092719 57 339 2.0 6.0 0.00 0.00 0.00 22 1017.2
20260507091715 58 355 4.0 8.0 0.00 0.00 0.00 21 1017.2
20260507090712 58 17 3.0 5.0 0.00 0.00 0.00 21 1017.2
20260507085723 58 49 1.0 2.0 0.00 0.00 0.00 22 1017.1
20260507083722 59 44 3.0 5.0 0.00 0.00 0.00 20 1017.1
20260507082711 59 42 3.0 5.0 0.00 0.00 0.00 21 1017.2
20260507081722 59 80 2.0 4.0 0.00 0.00 0.00 22 1017.2
20260507080718 59 69 1.0 4.0 0.00 0.00 0.00 20 1017.1
20260507074724 56 65 3.0 5.0 0.00 0.00 0.00 25 1017.1
20260507073722 57 82 2.0 4.0 0.00 0.00 0.00 24 1017.2
20260507072714 57 105 1.0 3.0 0.00 0.00 0.00 24 1017.3
20260507071722 58 73 1.0 4.0 0.00 0.00 0.00 24 1017.4
20260507070720 57 49 2.0 5.0 0.00 0.00 0.00 23 1017.5
20260507065721 56 82 2.0 3.0 0.00 0.00 0.00 25 1017.5
20260507064715 56 78 1.0 2.0 0.00 0.00 0.00 26 1017.5
20260507063715 56 86 1.0 4.0 0.00 0.00 0.00 27 1017.5
20260507062709 56 92 3.0 5.0 0.00 0.00 0.00 26 1017.5
20260507061722 56 89 2.0 6.0 0.00 0.00 0.00 26 1017.5
20260507060717 57 136 1.0 4.0 0.00 0.00 0.00 25 1017.5
20260507055709 57 138 0.0 6.0 0.00 0.00 0.00 25 1017.6
20260507053722 58 86 2.0 3.0 0.00 0.00 0.00 23 1017.5
20260507052715 59 84 3.0 3.0 0.00 0.00 0.00 23 1017.3
20260507050707 59 134 1.0 6.0 0.00 0.00 0.00 21 1017.4
20260507045724 59 84 3.0 6.0 0.00 0.00 0.00 21 1017.3
20260507043716 63 126 2.0 3.0 0.00 0.00 0.00 17 1016.9
20260507042711 63 186 2.0 5.0 0.00 0.00 0.00 16 1016.8
20260507041709 63 167 2.0 4.0 0.00 0.00 0.00 16 1016.7
20260507040706 63 169 2.0 4.0 0.00 0.00 0.00 16 1016.6
20260507034717 63 150 3.0 6.0 0.00 0.00 0.00 16 1016.2
20260507033710 63 138 3.0 5.0 0.00 0.00 0.00 17 1016.2
20260507032706 64 53 4.0 6.0 0.00 0.00 0.00 16 1016.1
20260507031723 67 16 2.0 3.0 0.00 0.00 0.00 14 1015.9
20260507025718 68 27 4.0 8.0 0.00 0.00 0.00 12 1015.6
20260507024711 69 28 4.0 6.0 0.00 0.00 0.00 12 1015.4
20260507023712 69 30 4.0 9.0 0.00 0.00 0.00 12 1015.3
20260507021721 70 30 8.0 15.0 0.00 0.00 0.00 11 1015.0
20260507020719 71 27 9.0 15.0 0.00 0.00 0.00 11 1014.9
20260507013706 72 271 8.0 16.0 0.00 0.00 0.00 10 1014.5
20260507012721 73 252 10.0 17.0 0.00 0.00 0.00 10 1014.5
20260507011715 73 232 11.0 15.0 0.00 0.00 0.00 10 1014.4
20260507005703 74 228 14.0 18.0 0.00 0.00 0.00 10 1014.2
20260507004716 74 280 9.0 19.0 0.00 0.00 0.00 11 1014.1
20260507003705 74 241 13.0 21.0 0.00 0.00 0.00 10 1014.0
20260507002720 75 237 11.0 18.0 0.00 0.00 0.00 11 1013.9
20260507000704 75 209 13.0 18.0 0.00 0.00 0.00 11 1013.9
20260506235719 75 232 12.0 22.0 0.00 0.00 0.00 10 1013.8
20260506234708 75 254 8.0 20.0 0.00 0.00 0.00 10 1013.7
20260506233705 76 198 12.0 20.0 0.00 0.00 0.00 10 1013.7
20260506232704 76 273 10.0 17.0 0.00 0.00 0.00 11 1013.7
20260506231700 75 259 13.0 22.0 0.00 0.00 0.00 10 1013.8
20260506230713 75 241 12.0 24.0 0.00 0.00 0.00 10 1013.9
20260506222658 75 254 13.0 20.0 0.00 0.00 0.00 12 1013.9
20260506221712 76 242 10.0 21.0 0.00 0.00 0.00 12 1013.8
20260506220707 76 251 10.0 19.0 0.00 0.00 0.00 13 1013.9
20260506215659 75 221 13.0 17.0 0.00 0.00 0.00 13 1014.0
20260506214708 75 248 9.0 19.0 0.00 0.00 0.00 13 1014.1
20260506213708 75 244 10.0 17.0 0.00 0.00 0.00 14 1014.1
20260506211713 75 174 5.0 16.0 0.00 0.00 0.00 16 1014.2
20260506205658 74 253 11.0 20.0 0.00 0.00 0.00 17 1014.5
20260506201704 73 274 5.0 17.0 0.00 0.00 0.00 18 1014.7
20260506195712 73 237 7.0 16.0 0.00 0.00 0.00 19 1015.0
20260506194709 72 262 10.0 14.0 0.00 0.00 0.00 19 1015.2
20260506193703 72 220 10.0 18.0 0.00 0.00 0.00 20 1015.3